FALCON 9 DEB (48154 NORAD) Tracking and Keplerian Element Data

This shows tracking and keplerian element data for the satellite.

Feedback or suggestion? Click here.




ElementValue
Catalog48154
NameFALCON 9 DEB
Epoch Orbit399
Epoch Day122.41535458
Epoch Year2021
RAAN211.772
Inclination53.0307
Eccentricity0.0007442
Argument of Perigee291.3552
Mean Anonmoly68.6702
Mean Motion16.45842166
Decay Rate0.096771
L11 48154U 21027BQ 21122.41535458 .09677100 12570-4 22587-3 0 9993
L22 48154 53.0307 211.7720 0007442 291.3552 68.6702 16.45842166 3999



Live tracking and technical data element details for FALCON 9 DEB (NORAD 48154). FALCON 9 DEB can be tracked NOW for your location showing map with azimuth and elevation plus other details from your city location.







IsCatalogInMostPopularTable: catalog: 48154, numindb: 91
Update: records affected: 1



GetName: 48154 FALCON 9 DEB

Hit Count: updated at: Sun, 28 May 2023 05:42:44 GMT